Location: Mentone
(34.5413°N, 85.5351°W)
Time: 09:45:31
(UTC-05:00)

ATLAS 5 CENTAUR R/B - Pass Details

Date: 30 June 2018
Orbit: 598 x 1061 km, 63.4° (Epoch: 17 September)

Event Time Altitude Azimuth Distance (km) Brightness Sun altitude
Rises 20:37:33 0° 212° (SSW) 2,829 4.9 -7.6°
Reaches altitude 10° 20:39:44 10° 213° (SSW) 1,943 4.1 -7.9°
Maximum altitude 20:44:05 82° 301° (WNW) 640 1.7 -8.7°
Drops below altitude 10° 20:48:48 10° 29° (NNE) 2,106 4.4 -9.5°
Sets 20:51:15 0° 30° (NNE) 3,088 5.2 -9.9°
